| time (UTC) | temp F | wind direction | speed MPH | gust MPH | rain 1hr in | rain 24hr in | rain mn in | humidity % | barometer mb |
| 20260906231735 | 83 | 338 | 3.0 | 7.0 | 0.00 | 0.00 | 0.00 | 40 | 1020.6 |
| 20260906231720 | 83 | 315 | 3.0 | 6.0 | 0.00 | 0.00 | 0.00 | 38 | 1020.5 |
| 20260906230723 | 83 | 314 | 4.0 | 9.0 | 0.00 | 0.00 | 0.00 | 38 | 1020.5 |
| 20260906230217 | 83 | 298 | 4.0 | 9.0 | 0.00 | 0.00 | 0.00 | 37 | 1020.4 |
| 20260906225711 | 83 | 32 | 5.0 | 9.0 | 0.00 | 0.00 | 0.00 | 39 | 1020.4 |
| 20260906225204 | 83 | 323 | 4.0 | 9.0 | 0.00 | 0.00 | 0.00 | 37 | 1020.3 |
| 20260906224659 | 83 | 352 | 3.0 | 7.0 | 0.00 | 0.00 | 0.00 | 36 | 1020.4 |
| 20260906224414 | 84 | 319 | 4.0 | 7.0 | 0.00 | 0.00 | 0.00 | 35 | 1020.4 |
| 20260906223646 | 84 | 313 | 4.0 | 8.0 | 0.00 | 0.00 | 0.00 | 36 | 1020.3 |
| 20260906223141 | 84 | 294 | 4.0 | 8.0 | 0.00 | 0.00 | 0.00 | 35 | 1020.3 |
| 20260906222635 | 84 | 305 | 3.0 | 7.0 | 0.00 | 0.00 | 0.00 | 35 | 1020.3 |
| 20260906222129 | 84 | 311 | 3.0 | 7.0 | 0.00 | 0.00 | 0.00 | 34 | 1020.2 |
| 20260906221623 | 84 | 309 | 3.0 | 8.0 | 0.00 | 0.00 | 0.00 | 34 | 1020.2 |
| 20260906221121 | 84 | 352 | 4.0 | 8.0 | 0.00 | 0.00 | 0.00 | 34 | 1020.2 |
| 20260906220621 | 84 | 309 | 4.0 | 8.0 | 0.00 | 0.00 | 0.00 | 36 | 1020.2 |
| 20260906220342 | 84 | 305 | 4.0 | 8.0 | 0.00 | 0.00 | 0.00 | 37 | 1020.2 |
| 20260906215621 | 84 | 278 | 3.0 | 6.0 | 0.00 | 0.00 | 0.00 | 36 | 1020.1 |
| 20260906215601 | 85 | 297 | 3.0 | 6.0 | 0.00 | 0.00 | 0.00 | 36 | 1020.2 |
| 20260906214621 | 85 | 10 | 3.0 | 6.0 | 0.00 | 0.00 | 0.00 | 35 | 1020.2 |
| 20260906214120 | 85 | 316 | 3.0 | 6.0 | 0.00 | 0.00 | 0.00 | 33 | 1020.1 |
| 20260906213841 | 85 | 339 | 3.0 | 6.0 | 0.00 | 0.00 | 0.00 | 32 | 1020.0 |
| 20260906213119 | 85 | 326 | 4.0 | 7.0 | 0.00 | 0.00 | 0.00 | 32 | 1020.0 |
| 20260906212619 | 85 | 13 | 5.0 | 9.0 | 0.00 | 0.00 | 0.00 | 32 | 1020.0 |
| 20260906212119 | 86 | 309 | 5.0 | 9.0 | 0.00 | 0.00 | 0.00 | 31 | 1020.0 |
| 20260906211619 | 86 | 338 | 4.0 | 9.0 | 0.00 | 0.00 | 0.00 | 31 | 1020.0 |
| 20260906211119 | 86 | 4 | 4.0 | 9.0 | 0.00 | 0.00 | 0.00 | 31 | 1020.0 |
| 20260906210620 | 86 | 15 | 4.0 | 10.0 | 0.00 | 0.00 | 0.00 | 31 | 1020.0 |
| 20260906210119 | 86 | 353 | 5.0 | 11.0 | 0.00 | 0.00 | 0.00 | 31 | 1019.9 |
| 20260906205619 | 86 | 12 | 6.0 | 12.0 | 0.00 | 0.00 | 0.00 | 30 | 1019.9 |
| 20260906205118 | 87 | 358 | 6.0 | 14.0 | 0.00 | 0.00 | 0.00 | 30 | 1019.8 |
| 20260906204612 | 87 | 24 | 6.0 | 14.0 | 0.00 | 0.00 | 0.00 | 30 | 1019.7 |
| 20260906204107 | 87 | 302 | 5.0 | 11.0 | 0.00 | 0.00 | 0.00 | 30 | 1019.7 |
| 20260906203601 | 87 | 7 | 5.0 | 9.0 | 0.00 | 0.00 | 0.00 | 30 | 1019.7 |
| 20260906203055 | 87 | 335 | 6.0 | 10.0 | 0.00 | 0.00 | 0.00 | 30 | 1019.7 |
| 20260906202548 | 87 | 354 | 5.0 | 10.0 | 0.00 | 0.00 | 0.00 | 30 | 1019.7 |
| 20260906202043 | 87 | 32 | 5.0 | 10.0 | 0.00 | 0.00 | 0.00 | 30 | 1019.7 |
| 20260906201800 | 87 | 10 | 4.0 | 10.0 | 0.00 | 0.00 | 0.00 | 30 | 1019.6 |
| 20260906201507 | 87 | 347 | 2.0 | 5.0 | 0.00 | 0.00 | 0.00 | 30 | 1019.6 |
| 20260906200524 | 87 | 72 | 2.0 | 5.0 | 0.00 | 0.00 | 0.00 | 30 | 1019.6 |
| 20260906200019 | 87 | 340 | 3.0 | 8.0 | 0.00 | 0.00 | 0.00 | 30 | 1019.6 |
| 20260906195512 | 87 | 17 | 4.0 | 10.0 | 0.00 | 0.00 | 0.00 | 30 | 1019.7 |
| 20260906195007 | 87 | 11 | 5.0 | 10.0 | 0.00 | 0.00 | 0.00 | 29 | 1019.7 |
| 20260906194720 | 87 | 4 | 5.0 | 10.0 | 0.00 | 0.00 | 0.00 | 29 | 1019.6 |
| 20260906193954 | 87 | 308 | 6.0 | 11.0 | 0.00 | 0.00 | 0.00 | 29 | 1019.6 |
| 20260906193449 | 88 | 342 | 5.0 | 11.0 | 0.00 | 0.00 | 0.00 | 29 | 1019.6 |
| 20260906192942 | 88 | 1 | 5.0 | 10.0 | 0.00 | 0.00 | 0.00 | 28 | 1019.6 |
| 20260906192437 | 88 | 321 | 5.0 | 11.0 | 0.00 | 0.00 | 0.00 | 28 | 1019.6 |
| 20260906191931 | 88 | 6 | 5.0 | 11.0 | 0.00 | 0.00 | 0.00 | 28 | 1019.5 |
| 20260906191426 | 88 | 283 | 4.0 | 10.0 | 0.00 | 0.00 | 0.00 | 28 | 1019.5 |
| 20260906190919 | 89 | 325 | 3.0 | 8.0 | 0.00 | 0.00 | 0.00 | 28 | 1019.4 |
| 20260906190412 | 89 | 27 | 2.0 | 5.0 | 0.00 | 0.00 | 0.00 | 28 | 1019.3 |
| 20260906185906 | 89 | 351 | 3.0 | 6.0 | 0.00 | 0.00 | 0.00 | 28 | 1019.3 |
| 20260906185401 | 89 | 25 | 3.0 | 7.0 | 0.00 | 0.00 | 0.00 | 28 | 1019.2 |
| 20260906184855 | 89 | 38 | 4.0 | 10.0 | 0.00 | 0.00 | 0.00 | 27 | 1019.2 |
| 20260906184607 | 89 | 15 | 5.0 | 10.0 | 0.00 | 0.00 | 0.00 | 27 | 1019.1 |
| 20260906183842 | 89 | 18 | 4.0 | 9.0 | 0.00 | 0.00 | 0.00 | 28 | 1019.1 |
| 20260906183336 | 89 | 295 | 5.0 | 9.0 | 0.00 | 0.00 | 0.00 | 28 | 1019.0 |
| 20260906182831 | 89 | 29 | 5.0 | 9.0 | 0.00 | 0.00 | 0.00 | 28 | 1019.0 |
| 20260906182324 | 89 | 13 | 3.0 | 7.0 | 0.00 | 0.00 | 0.00 | 28 | 1018.9 |
| 20260906181818 | 90 | 24 | 3.0 | 8.0 | 0.00 | 0.00 | 0.00 | 28 | 1018.7 |
| 20260906181312 | 90 | 32 | 3.0 | 8.0 | 0.00 | 0.00 | 0.00 | 28 | 1018.7 |
| 20260906180806 | 90 | 33 | 2.0 | 5.0 | 0.00 | 0.00 | 0.00 | 28 | 1018.6 |
| 20260906180528 | 90 | 89 | 2.0 | 6.0 | 0.00 | 0.00 | 0.00 | 28 | 1018.6 |
| 20260906180246 | 90 | 83 | 2.0 | 6.0 | 0.00 | 0.00 | 0.00 | 28 | 1018.4 |
| 20260906175511 | 91 | 86 | 2.0 | 4.0 | 0.00 | 0.00 | 0.00 | 28 | 1018.3 |
| 20260906174749 | 91 | 78 | 2.0 | 5.0 | 0.00 | 0.00 | 0.00 | 28 | 1018.2 |
| 20260906174247 | 91 | 318 | 2.0 | 5.0 | 0.00 | 0.00 | 0.00 | 28 | 1018.1 |
| 20260906173745 | 91 | 346 | 2.0 | 6.0 | 0.00 | 0.00 | 0.00 | 28 | 1018.0 |
| 20260906173511 | 91 | 25 | 2.0 | 8.0 | 0.00 | 0.00 | 0.00 | 28 | 1017.9 |
| 20260906172746 | 91 | 332 | 5.0 | 13.0 | 0.00 | 0.00 | 0.00 | 28 | 1017.8 |
| 20260906172245 | 91 | 27 | 6.0 | 13.0 | 0.00 | 0.00 | 0.00 | 27 | 1017.8 |
| 20260906171743 | 92 | 358 | 6.0 | 12.0 | 0.00 | 0.00 | 0.00 | 27 | 1017.6 |
| 20260906171243 | 92 | 50 | 7.0 | 13.0 | 0.00 | 0.00 | 0.00 | 28 | 1017.5 |
| 20260906170743 | 92 | 9 | 6.0 | 13.0 | 0.00 | 0.00 | 0.00 | 28 | 1017.4 |
| 20260906170240 | 92 | 6 | 5.0 | 10.0 | 0.00 | 0.00 | 0.00 | 28 | 1017.2 |
| 20260906165740 | 92 | 347 | 6.0 | 12.0 | 0.00 | 0.00 | 0.00 | 28 | 1017.2 |
| 20260906165240 | 92 | 29 | 6.0 | 13.0 | 0.00 | 0.00 | 0.00 | 28 | 1017.1 |
| 20260906164739 | 93 | 314 | 7.0 | 15.0 | 0.00 | 0.00 | 0.00 | 29 | 1017.1 |
| 20260906164239 | 93 | 285 | 8.0 | 15.0 | 0.00 | 0.00 | 0.00 | 29 | 1017.0 |
| 20260906163739 | 93 | 318 | 7.0 | 13.0 | 0.00 | 0.00 | 0.00 | 29 | 1016.9 |
| 20260906163238 | 93 | 304 | 6.0 | 12.0 | 0.00 | 0.00 | 0.00 | 29 | 1016.9 |
| 20260906162737 | 94 | 323 | 6.0 | 12.0 | 0.00 | 0.00 | 0.00 | 29 | 1016.7 |
| 20260906162500 | 94 | 322 | 7.0 | 12.0 | 0.00 | 0.00 | 0.00 | 29 | 1016.5 |
| 20260906161730 | 94 | 354 | 6.0 | 15.0 | 0.00 | 0.00 | 0.00 | 28 | 1016.5 |
| 20260906161225 | 94 | 318 | 6.0 | 15.0 | 0.00 | 0.00 | 0.00 | 29 | 1016.6 |
| 20260906160950 | 94 | 357 | 5.0 | 12.0 | 0.00 | 0.00 | 0.00 | 31 | 1016.5 |
| 20260906160713 | 94 | 316 | 5.0 | 9.0 | 0.00 | 0.00 | 0.00 | 32 | 1016.5 |
| 20260906155946 | 94 | 317 | 6.0 | 12.0 | 0.00 | 0.00 | 0.00 | 34 | 1016.5 |
| 20260906155222 | 94 | 316 | 8.0 | 13.0 | 0.00 | 0.00 | 0.00 | 34 | 1016.4 |
| 20260906154722 | 94 | 302 | 9.0 | 14.0 | 0.00 | 0.00 | 0.00 | 33 | 1016.4 |
| 20260906154223 | 95 | 310 | 9.0 | 16.0 | 0.00 | 0.00 | 0.00 | 32 | 1016.3 |
| 20260906153723 | 95 | 311 | 7.0 | 16.0 | 0.00 | 0.00 | 0.00 | 32 | 1016.4 |
| 20260906153224 | 95 | 300 | 6.0 | 11.0 | 0.00 | 0.00 | 0.00 | 32 | 1016.3 |
| 20260906152726 | 95 | 335 | 6.0 | 11.0 | 0.00 | 0.00 | 0.00 | 32 | 1016.3 |
| 20260906152224 | 95 | 304 | 5.0 | 11.0 | 0.00 | 0.00 | 0.00 | 33 | 1016.2 |
| 20260906151722 | 95 | 306 | 5.0 | 8.0 | 0.00 | 0.00 | 0.00 | 37 | 1016.2 |
| 20260906151223 | 95 | 274 | 5.0 | 10.0 | 0.00 | 0.00 | 0.00 | 36 | 1016.2 |
| 20260906150721 | 95 | 300 | 6.0 | 10.0 | 0.00 | 0.00 | 0.00 | 37 | 1016.2 |
| 20260906150219 | 95 | 306 | 6.0 | 11.0 | 0.00 | 0.00 | 0.00 | 36 | 1016.2 |
| 20260906145718 | 95 | 312 | 5.0 | 11.0 | 0.00 | 0.00 | 0.00 | 37 | 1016.3 |
| 20260906145219 | 95 | 328 | 5.0 | 10.0 | 0.00 | 0.00 | 0.00 | 36 | 1016.3 |
| 20260906144719 | 95 | 290 | 5.0 | 8.0 | 0.00 | 0.00 | 0.00 | 35 | 1016.3 |
| 20260906144438 | 95 | 277 | 5.0 | 9.0 | 0.00 | 0.00 | 0.00 | 32 | 1016.3 |
| 20260906143719 | 96 | 307 | 5.0 | 9.0 | 0.00 | 0.00 | 0.00 | 34 | 1016.3 |
| 20260906143219 | 95 | 284 | 5.0 | 9.0 | 0.00 | 0.00 | 0.00 | 34 | 1016.4 |
| 20260906142719 | 95 | 259 | 5.0 | 9.0 | 0.00 | 0.00 | 0.00 | 36 | 1016.3 |
| 20260906142218 | 95 | 281 | 6.0 | 10.0 | 0.00 | 0.00 | 0.00 | 34 | 1016.3 |
| 20260906141718 | 95 | 284 | 5.0 | 10.0 | 0.00 | 0.00 | 0.00 | 37 | 1016.4 |
| 20260906141219 | 95 | 300 | 5.0 | 9.0 | 0.00 | 0.00 | 0.00 | 35 | 1016.3 |
| 20260906140719 | 95 | 281 | 4.0 | 9.0 | 0.00 | 0.00 | 0.00 | 35 | 1016.3 |
| 20260906140217 | 96 | 285 | 5.0 | 9.0 | 0.00 | 0.00 | 0.00 | 32 | 1016.3 |
| 20260906135717 | 96 | 319 | 6.0 | 10.0 | 0.00 | 0.00 | 0.00 | 32 | 1016.3 |
| 20260906135217 | 95 | 277 | 6.0 | 10.0 | 0.00 | 0.00 | 0.00 | 30 | 1016.4 |
| 20260906134716 | 96 | 325 | 5.0 | 11.0 | 0.00 | 0.00 | 0.00 | 33 | 1016.4 |
| 20260906134441 | 96 | 297 | 5.0 | 11.0 | 0.00 | 0.00 | 0.00 | 31 | 1016.3 |
| 20260906133716 | 96 | 269 | 5.0 | 10.0 | 0.00 | 0.00 | 0.00 | 33 | 1016.4 |
| 20260906133440 | 95 | 256 | 5.0 | 10.0 | 0.00 | 0.00 | 0.00 | 33 | 1016.4 |
| 20260906132713 | 96 | 260 | 5.0 | 11.0 | 0.00 | 0.00 | 0.00 | 32 | 1016.4 |
| 20260906132211 | 96 | 309 | 6.0 | 11.0 | 0.00 | 0.00 | 0.00 | 32 | 1016.4 |
| 20260906131713 | 96 | 292 | 5.0 | 11.0 | 0.00 | 0.00 | 0.00 | 31 | 1016.4 |
| 20260906131210 | 96 | 272 | 4.0 | 8.0 | 0.00 | 0.00 | 0.00 | 36 | 1016.4 |
| 20260906130708 | 96 | 271 | 5.0 | 11.0 | 0.00 | 0.00 | 0.00 | 33 | 1016.5 |
| 20260906130208 | 96 | 285 | 6.0 | 11.0 | 0.00 | 0.00 | 0.00 | 31 | 1016.5 |
| 20260906125708 | 96 | 283 | 5.0 | 10.0 | 0.00 | 0.00 | 0.00 | 30 | 1016.5 |
| 20260906125206 | 96 | 264 | 4.0 | 11.0 | 0.00 | 0.00 | 0.00 | 31 | 1016.5 |
| 20260906124706 | 96 | 311 | 5.0 | 11.0 | 0.00 | 0.00 | 0.00 | 29 | 1016.6 |
| 20260906124438 | 95 | 302 | 5.0 | 10.0 | 0.00 | 0.00 | 0.00 | 30 | 1016.6 |
| 20260906123705 | 95 | 288 | 5.0 | 9.0 | 0.00 | 0.00 | 0.00 | 34 | 1016.6 |
| 20260906123204 | 95 | 276 | 5.0 | 10.0 | 0.00 | 0.00 | 0.00 | 35 | 1016.6 |
| 20260906122705 | 94 | 307 | 5.0 | 10.0 | 0.00 | 0.00 | 0.00 | 36 | 1016.6 |
| 20260906122202 | 95 | 280 | 5.0 | 11.0 | 0.00 | 0.00 | 0.00 | 34 | 1016.6 |
| 20260906121925 | 94 | 328 | 5.0 | 11.0 | 0.00 | 0.00 | 0.00 | 35 | 1016.7 |
| 20260906121425 | 94 | 288 | 5.0 | 11.0 | 0.00 | 0.00 | 0.00 | 35 | 1016.9 |
| 20260906120927 | 95 | 284 | 6.0 | 17.0 | 0.00 | 0.00 | 0.00 | 32 | 1016.9 |
| 20260906120157 | 94 | 276 | 6.0 | 17.0 | 0.00 | 0.00 | 0.00 | 31 | 1017.0 |
| 20260906115704 | 94 | 288 | 6.0 | 10.0 | 0.00 | 0.00 | 0.00 | 37 | 1017.0 |
| 20260906115145 | 94 | 321 | 5.0 | 11.0 | 0.00 | 0.00 | 0.00 | 34 | 1017.0 |
| 20260906114639 | 94 | 282 | 5.0 | 11.0 | 0.00 | 0.00 | 0.00 | 37 | 1017.1 |
| 20260906114133 | 94 | 262 | 5.0 | 11.0 | 0.00 | 0.00 | 0.00 | 36 | 1017.1 |
| 20260906113627 | 94 | 312 | 6.0 | 11.0 | 0.00 | 0.00 | 0.00 | 35 | 1017.1 |
| 20260906113122 | 94 | 322 | 6.0 | 12.0 | 0.00 | 0.00 | 0.00 | 35 | 1017.2 |
| 20260906112615 | 93 | 320 | 6.0 | 12.0 | 0.00 | 0.00 | 0.00 | 35 | 1017.2 |
| 20260906112109 | 93 | 316 | 6.0 | 11.0 | 0.00 | 0.00 | 0.00 | 36 | 1017.2 |
| 20260906111603 | 93 | 285 | 6.0 | 11.0 | 0.00 | 0.00 | 0.00 | 36 | 1017.2 |
| 20260906111101 | 94 | 285 | 6.0 | 11.0 | 0.00 | 0.00 | 0.00 | 34 | 1017.2 |
| 20260906110558 | 93 | 301 | 5.0 | 12.0 | 0.00 | 0.00 | 0.00 | 35 | 1017.3 |
| 20260906110058 | 93 | 309 | 5.0 | 12.0 | 0.00 | 0.00 | 0.00 | 36 | 1017.2 |
| 20260906105558 | 94 | 312 | 5.0 | 10.0 | 0.00 | 0.00 | 0.00 | 33 | 1017.3 |
| 20260906105545 | 93 | 294 | 6.0 | 10.0 | 0.00 | 0.00 | 0.00 | 34 | 1017.4 |
| 20260906104558 | 93 | 289 | 6.0 | 10.0 | 0.00 | 0.00 | 0.00 | 34 | 1017.3 |
| 20260906104058 | 93 | 307 | 5.0 | 10.0 | 0.00 | 0.00 | 0.00 | 34 | 1017.4 |
| 20260906103559 | 93 | 285 | 5.0 | 10.0 | 0.00 | 0.00 | 0.00 | 33 | 1017.4 |
| 20260906103058 | 92 | 298 | 5.0 | 10.0 | 0.00 | 0.00 | 0.00 | 35 | 1017.4 |
| 20260906102558 | 92 | 304 | 6.0 | 10.0 | 0.00 | 0.00 | 0.00 | 34 | 1017.5 |
| 20260906102100 | 92 | 304 | 5.0 | 10.0 | 0.00 | 0.00 | 0.00 | 36 | 1017.5 |
| 20260906101558 | 92 | 342 | 6.0 | 11.0 | 0.00 | 0.00 | 0.00 | 37 | 1017.5 |
| 20260906101058 | 92 | 290 | 6.0 | 11.0 | 0.00 | 0.00 | 0.00 | 35 | 1017.5 |
| 20260906100817 | 92 | 295 | 5.0 | 10.0 | 0.00 | 0.00 | 0.00 | 36 | 1017.6 |
| 20260906100058 | 92 | 276 | 5.0 | 10.0 | 0.00 | 0.00 | 0.00 | 36 | 1017.6 |
| 20260906095558 | 91 | 283 | 5.0 | 10.0 | 0.00 | 0.00 | 0.00 | 37 | 1017.6 |
| 20260906095058 | 91 | 285 | 6.0 | 10.0 | 0.00 | 0.00 | 0.00 | 36 | 1017.6 |
| 20260906094552 | 91 | 292 | 5.0 | 10.0 | 0.00 | 0.00 | 0.00 | 37 | 1017.7 |
| 20260906094310 | 91 | 303 | 6.0 | 10.0 | 0.00 | 0.00 | 0.00 | 36 | 1017.7 |
| 20260906093806 | 90 | 264 | 6.0 | 9.0 | 0.00 | 0.00 | 0.00 | 37 | 1017.7 |
| 20260906093034 | 90 | 284 | 6.0 | 9.0 | 0.00 | 0.00 | 0.00 | 37 | 1017.8 |
| 20260906092528 | 90 | 296 | 6.0 | 11.0 | 0.00 | 0.00 | 0.00 | 40 | 1017.8 |
| 20260906092245 | 90 | 276 | 6.0 | 11.0 | 0.00 | 0.00 | 0.00 | 37 | 1017.8 |
| 20260906091741 | 90 | 251 | 6.0 | 9.0 | 0.00 | 0.00 | 0.00 | 37 | 1017.8 |
| 20260906091010 | 90 | 300 | 6.0 | 12.0 | 0.00 | 0.00 | 0.00 | 36 | 1017.9 |
| 20260906090727 | 89 | 311 | 7.0 | 12.0 | 0.00 | 0.00 | 0.00 | 36 | 1017.9 |
| 20260906090222 | 89 | 356 | 7.0 | 11.0 | 0.00 | 0.00 | 0.00 | 36 | 1017.9 |
| 20260906085451 | 89 | 302 | 6.0 | 10.0 | 0.00 | 0.00 | 0.00 | 36 | 1017.9 |
| 20260906085209 | 89 | 296 | 7.0 | 11.0 | 0.00 | 0.00 | 0.00 | 38 | 1017.9 |
| 20260906084439 | 88 | 309 | 7.0 | 12.0 | 0.00 | 0.00 | 0.00 | 39 | 1017.9 |
| 20260906083933 | 88 | 304 | 7.0 | 12.0 | 0.00 | 0.00 | 0.00 | 38 | 1017.9 |
| 20260906083429 | 88 | 310 | 7.0 | 11.0 | 0.00 | 0.00 | 0.00 | 38 | 1017.9 |
| 20260906082928 | 88 | 295 | 7.0 | 12.0 | 0.00 | 0.00 | 0.00 | 39 | 1018.0 |
| 20260906082428 | 87 | 304 | 6.0 | 12.0 | 0.00 | 0.00 | 0.00 | 39 | 1018.0 |
| 20260906081929 | 87 | 333 | 6.0 | 10.0 | 0.00 | 0.00 | 0.00 | 38 | 1018.0 |
| 20260906081428 | 87 | 318 | 6.0 | 11.0 | 0.00 | 0.00 | 0.00 | 39 | 1018.0 |
| 20260906080928 | 87 | 335 | 6.0 | 13.0 | 0.00 | 0.00 | 0.00 | 39 | 1018.0 |
| 20260906080428 | 86 | 298 | 7.0 | 13.0 | 0.00 | 0.00 | 0.00 | 39 | 1018.0 |
| 20260906075928 | 86 | 313 | 7.0 | 13.0 | 0.00 | 0.00 | 0.00 | 39 | 1017.9 |
| 20260906075905 | 86 | 297 | 7.0 | 13.0 | 0.00 | 0.00 | 0.00 | 40 | 1018.0 |
| 20260906074928 | 86 | 304 | 7.0 | 13.0 | 0.00 | 0.00 | 0.00 | 40 | 1018.0 |
| 20260906074428 | 86 | 319 | 7.0 | 14.0 | 0.00 | 0.00 | 0.00 | 40 | 1018.0 |
| 20260906074151 | 85 | 314 | 6.0 | 14.0 | 0.00 | 0.00 | 0.00 | 40 | 1017.9 |
| 20260906073644 | 85 | 340 | 5.0 | 12.0 | 0.00 | 0.00 | 0.00 | 40 | 1017.9 |
| 20260906072927 | 85 | 297 | 6.0 | 13.0 | 0.00 | 0.00 | 0.00 | 40 | 1017.8 |
| 20260906072427 | 85 | 321 | 6.0 | 13.0 | 0.00 | 0.00 | 0.00 | 41 | 1017.8 |
| 20260906071928 | 84 | 304 | 5.0 | 11.0 | 0.00 | 0.00 | 0.00 | 41 | 1017.8 |
| 20260906071429 | 84 | 293 | 5.0 | 11.0 | 0.00 | 0.00 | 0.00 | 42 | 1017.8 |
| 20260906070922 | 83 | 310 | 4.0 | 9.0 | 0.00 | 0.00 | 0.00 | 45 | 1017.8 |
| 20260906070415 | 83 | 304 | 4.0 | 8.0 | 0.00 | 0.00 | 0.00 | 49 | 1017.7 |
| 20260906065916 | 82 | 309 | 4.0 | 7.0 | 0.00 | 0.00 | 0.00 | 50 | 1017.6 |
| 20260906065416 | 80 | 305 | 4.0 | 7.0 | 0.00 | 0.00 | 0.00 | 54 | 1017.6 |
| 20260906064916 | 79 | 298 | 3.0 | 6.0 | 0.00 | 0.00 | 0.00 | 58 | 1017.6 |
| 20260906064416 | 78 | 320 | 2.0 | 5.0 | 0.00 | 0.00 | 0.00 | 61 | 1017.6 |
| 20260906063915 | 77 | 309 | 3.0 | 5.0 | 0.00 | 0.00 | 0.00 | 64 | 1017.6 |
| 20260906063416 | 76 | 275 | 4.0 | 8.0 | 0.00 | 0.00 | 0.00 | 67 | 1017.6 |
| 20260906062916 | 76 | 279 | 5.0 | 8.0 | 0.00 | 0.00 | 0.00 | 67 | 1017.5 |
| 20260906062413 | 76 | 276 | 4.0 | 8.0 | 0.00 | 0.00 | 0.00 | 66 | 1017.5 |
| 20260906061914 | 75 | 266 | 4.0 | 7.0 | 0.00 | 0.00 | 0.00 | 67 | 1017.4 |
| 20260906061414 | 75 | 300 | 4.0 | 8.0 | 0.00 | 0.00 | 0.00 | 67 | 1017.4 |
| 20260906061138 | 75 | 295 | 3.0 | 8.0 | 0.00 | 0.00 | 0.00 | 68 | 1017.3 |
| 20260906060414 | 75 | 300 | 3.0 | 6.0 | 0.00 | 0.00 | 0.00 | 66 | 1017.4 |
| 20260906060131 | 75 | 266 | 3.0 | 6.0 | 0.00 | 0.00 | 0.00 | 65 | 1017.3 |
| 20260906055641 | 76 | 297 | 3.0 | 6.0 | 0.00 | 0.00 | 0.00 | 63 | 1017.3 |
| 20260906054911 | 75 | 293 | 2.0 | 5.0 | 0.00 | 0.00 | 0.00 | 63 | 1017.4 |
| 20260906054638 | 75 | 277 | 2.0 | 3.0 | 0.00 | 0.00 | 0.00 | 62 | 1017.4 |
| 20260906053912 | 75 | 307 | 2.0 | 3.0 | 0.00 | 0.00 | 0.00 | 63 | 1017.3 |
| 20260906053640 | 74 | 294 | 2.0 | 3.0 | 0.00 | 0.00 | 0.00 | 63 | 1017.4 |
| 20260906052909 | 74 | 356 | 2.0 | 3.0 | 0.00 | 0.00 | 0.00 | 65 | 1017.3 |
| 20260906052632 | 74 | 304 | 1.0 | 3.0 | 0.00 | 0.00 | 0.00 | 67 | 1017.3 |
| 20260906051910 | 74 | 342 | 1.0 | 3.0 | 0.00 | 0.00 | 0.00 | 69 | 1017.3 |
| 20260906051636 | 73 | 302 | 2.0 | 4.0 | 0.00 | 0.00 | 0.00 | 71 | 1017.3 |
| 20260906050909 | 73 | 261 | 1.0 | 4.0 | 0.00 | 0.00 | 0.00 | 72 | 1017.2 |
| 20260906050410 | 73 | 274 | 2.0 | 4.0 | 0.00 | 0.00 | 0.00 | 74 | 1017.2 |
| 20260906045906 | 73 | 281 | 2.0 | 4.0 | 0.00 | 0.00 | 0.00 | 75 | 1017.1 |
| 20260906045406 | 72 | 277 | 3.0 | 7.0 | 0.00 | 0.00 | 0.00 | 76 | 1017.1 |
| 20260906044906 | 72 | 255 | 4.0 | 8.0 | 0.00 | 0.00 | 0.00 | 76 | 1017.1 |
| 20260906044406 | 73 | 276 | 4.0 | 8.0 | 0.00 | 0.00 | 0.00 | 73 | 1016.9 |
| 20260906043905 | 74 | 240 | 2.0 | 7.0 | 0.00 | 0.00 | 0.00 | 70 | 1016.9 |
| 20260906043405 | 74 | 277 | 1.0 | 7.0 | 0.00 | 0.00 | 0.00 | 70 | 1016.9 |
| 20260906042906 | 74 | 124 | 1.0 | 1.0 | 0.00 | 0.00 | 0.00 | 68 | 1016.5 |
| 20260906042405 | 74 | 124 | 0.0 | 1.0 | 0.00 | 0.00 | 0.00 | 70 | 1016.4 |
| 20260906041905 | 73 | 257 | 0.0 | 1.0 | 0.00 | 0.00 | 0.00 | 70 | 1016.4 |
| 20260906041400 | 73 | 257 | 0.0 | 1.0 | 0.00 | 0.00 | 0.00 | 70 | 1016.3 |
| 20260906040853 | 73 | 257 | 0.0 | 2.0 | 0.00 | 0.00 | 0.00 | 70 | 1016.4 |
| 20260906040347 | 73 | 257 | 0.0 | 2.0 | 0.00 | 0.00 | 0.00 | 70 | 1016.3 |
| 20260906035840 | 73 | 257 | 1.0 | 2.0 | 0.00 | 0.00 | 0.00 | 70 | 1016.2 |
| 20260906035335 | 74 | 257 | 1.0 | 2.0 | 0.00 | 0.00 | 0.00 | 70 | 1016.2 |
| 20260906034829 | 74 | 271 | 1.0 | 3.0 | 0.00 | 0.00 | 0.00 | 69 | 1016.2 |
| 20260906034323 | 74 | 271 | 2.0 | 3.0 | 0.00 | 0.00 | 0.00 | 69 | 1016.2 |
| 20260906034044 | 74 | 276 | 2.0 | 4.0 | 0.00 | 0.00 | 0.00 | 69 | 1016.1 |
| 20260906033311 | 74 | 269 | 1.0 | 4.0 | 0.00 | 0.00 | 0.00 | 69 | 1016.1 |
| 20260906032805 | 74 | 266 | 0.0 | 3.0 | 0.00 | 0.00 | 0.00 | 69 | 1016.1 |
| 20260906032502 | 74 | 212 | 0.0 | 2.0 | 0.00 | 0.00 | 0.00 | 66 | 1016.0 |
| 20260906032349 | 74 | 212 | 0.0 | 1.0 | 0.00 | 0.00 | 0.00 | 67 | 1016.1 |
| 20260906031247 | 75 | 212 | 0.0 | 2.0 | 0.00 | 0.00 | 0.00 | 66 | 1016.0 |
| 20260906030741 | 75 | 228 | 1.0 | 2.0 | 0.00 | 0.00 | 0.00 | 68 | 1016.0 |
| 20260906030235 | 75 | 228 | 1.0 | 3.0 | 0.00 | 0.00 | 0.00 | 67 | 1015.9 |
| 20260906025729 | 75 | 265 | 0.0 | 3.0 | 0.00 | 0.00 | 0.00 | 64 | 1015.9 |
| 20260906025223 | 75 | 347 | 0.0 | 1.0 | 0.00 | 0.00 | 0.00 | 57 | 1015.8 |
| 20260906024716 | 74 | 349 | 0.0 | 0.0 | 0.00 | 0.00 | 0.00 | 56 | 1015.8 |
| 20260906024211 | 74 | 349 | 0.0 | 0.0 | 0.00 | 0.00 | 0.00 | 56 | 1015.8 |
| 20260906023705 | 75 | 349 | 0.0 | 0.0 | 0.00 | 0.00 | 0.00 | 54 | 1015.8 |
| 20260906023159 | 75 | 349 | 0.0 | 0.0 | 0.00 | 0.00 | 0.00 | 53 | 1015.7 |
| 20260906022653 | 75 | 349 | 0.0 | 0.0 | 0.00 | 0.00 | 0.00 | 53 | 1015.7 |
| 20260906022146 | 75 | 349 | 0.0 | 1.0 | 0.00 | 0.00 | 0.00 | 52 | 1015.7 |
| 20260906021641 | 75 | 349 | 0.0 | 1.0 | 0.00 | 0.00 | 0.00 | 52 | 1015.6 |
| 20260906021135 | 76 | 349 | 0.0 | 1.0 | 0.00 | 0.00 | 0.00 | 52 | 1015.7 |
| 20260906020629 | 76 | 349 | 0.0 | 1.0 | 0.00 | 0.00 | 0.00 | 51 | 1015.6 |
| 20260906020122 | 76 | 349 | 1.0 | 1.0 | 0.00 | 0.00 | 0.00 | 50 | 1015.7 |
| 20260906015616 | 76 | 347 | 1.0 | 1.0 | 0.00 | 0.00 | 0.00 | 50 | 1015.6 |
| 20260906015111 | 76 | 334 | 0.0 | 1.0 | 0.00 | 0.00 | 0.00 | 50 | 1015.6 |
| 20260906014605 | 76 | 334 | 0.0 | 1.0 | 0.00 | 0.00 | 0.00 | 49 | 1015.7 |
| 20260906014059 | 76 | 334 | 0.0 | 1.0 | 0.00 | 0.00 | 0.00 | 49 | 1015.7 |
| 20260906013552 | 76 | 334 | 0.0 | 1.0 | 0.00 | 0.00 | 0.00 | 49 | 1015.8 |
| 20260906013309 | 76 | 334 | 0.0 | 1.0 | 0.00 | 0.00 | 0.00 | 48 | 1015.8 |
| 20260906012540 | 76 | 334 | 0.0 | 1.0 | 0.00 | 0.00 | 0.00 | 48 | 1015.7 |
| 20260906012035 | 76 | 334 | 0.0 | 1.0 | 0.00 | 0.00 | 0.00 | 48 | 1015.7 |
| 20260906011529 | 76 | 334 | 0.0 | 2.0 | 0.00 | 0.00 | 0.00 | 47 | 1015.7 |
| 20260906011023 | 76 | 334 | 1.0 | 2.0 | 0.00 | 0.00 | 0.00 | 47 | 1015.7 |
| 20260906010739 | 76 | 334 | 1.0 | 2.0 | 0.00 | 0.00 | 0.00 | 50 | 1015.7 |
| 20260906010011 | 76 | 85 | 0.0 | 1.0 | 0.00 | 0.00 | 0.00 | 50 | 1015.7 |
| 20260906005504 | 76 | 85 | 0.0 | 1.0 | 0.00 | 0.00 | 0.00 | 51 | 1015.7 |
| 20260906004958 | 76 | 85 | 0.0 | 1.0 | 0.00 | 0.00 | 0.00 | 51 | 1015.7 |
| 20260906004452 | 76 | 85 | 0.0 | 1.0 | 0.00 | 0.00 | 0.00 | 50 | 1015.7 |
| 20260906003947 | 76 | 85 | 0.0 | 1.0 | 0.00 | 0.00 | 0.00 | 50 | 1015.6 |
| 20260906003441 | 76 | 85 | 0.0 | 2.0 | 0.00 | 0.00 | 0.00 | 49 | 1015.7 |
| 20260906002934 | 76 | 85 | 0.0 | 2.0 | 0.00 | 0.00 | 0.00 | 49 | 1015.7 |
| 20260906002429 | 76 | 86 | 0.0 | 0.0 | 0.00 | 0.00 | 0.00 | 48 | 1015.6 |
| 20260906001923 | 76 | 85 | 0.0 | 2.0 | 0.00 | 0.00 | 0.00 | 48 | 1015.7 |
| 20260906001416 | 77 | 85 | 1.0 | 2.0 | 0.00 | 0.00 | 0.00 | 48 | 1015.7 |
| 20260906000910 | 77 | 86 | 1.0 | 3.0 | 0.00 | 0.00 | 0.00 | 47 | 1015.7 |
| 20260906000407 | 77 | 7 | 1.0 | 3.0 | 0.00 | 0.00 | 0.00 | 46 | 1015.7 |
| 20260905235859 | 78 | 352 | 0.0 | 1.0 | 0.00 | 0.00 | 0.00 | 46 | 1015.6 |
| 20260905235353 | 78 | 352 | 0.0 | 1.0 | 0.00 | 0.00 | 0.00 | 47 | 1015.6 |
| 20260905234847 | 77 | 352 | 0.0 | 1.0 | 0.00 | 0.00 | 0.00 | 47 | 1015.6 |
| 20260905234342 | 77 | 352 | 0.0 | 1.0 | 0.00 | 0.00 | 0.00 | 47 | 1015.6 |
| 20260905233834 | 77 | 352 | 0.0 | 1.0 | 0.00 | 0.00 | 0.00 | 47 | 1015.8 |
| 20260905233328 | 77 | 352 | 0.0 | 1.0 | 0.00 | 0.00 | 0.00 | 46 | 1015.9 |
| 20260905232829 | 78 | 350 | 1.0 | 3.0 | 0.00 | 0.00 | 0.00 | 47 | 1015.8 |
| 20260905232329 | 78 | 352 | 1.0 | 3.0 | 0.00 | 0.00 | 0.00 | 46 | 1015.9 |
| 20260905231829 | 79 | 302 | 1.0 | 3.0 | 0.00 | 0.00 | 0.00 | 45 | 1015.9 |